Flag for Australia Weather past 2 weeks in Uluru, Northern Territory, Australia

Now
63 °F

Partly cloudy.


Feels Like: 63 °F
Forecast: 60 / 82 °F
Wind: 9 mph from North

Location: Ayers Rock

Current Time: Sep 1, 2015 at 12:51:10 AM

Latest Report: Sep 1, 2015 at 12:30 AM


Visibility: N/A

Pressure: 29.92 "Hg (27.05 "Hg at 857m altitude)

Humidity: 83%

Dew point: 57 °F

Location of UluruLocation

Historic Weather in Uluru — Graph

°F

Uluru temperature yesterday

Maximum temperature yesterday: 82 °F (at 2:30 PM)
Minimum temperature yesterday: 57 °F (at 6:30 AM)
Average temperature yesterday: 68 °F

Past Weeks' High & Low Weather Summary

 TemperatureHumidityPressure
High88 °F (Aug 22, 2:30 PM)94% (Aug 26, 4:30 AM)30.30 "Hg (Aug 26, 4:30 AM)
Low41 °F (Aug 17, 6:30 AM)10% (Aug 19, 2:30 PM)29.86 "Hg (Aug 22, 3:31 PM)
Average63 °F41%30.10 "Hg
* Reported Aug 16 11:30 PM — Aug 31 11:30 PM, Uluru, Weather by CustomWeather, © 2015

Note: Actual official high and low records may vary slightly from our data, if they occured in-between our weather recording intervals... More about our weather records

Advertising

Uluru weather history for previous 24 hours

 ConditionsComfort  
Time TempWeatherWind HumidityBarometerVisibility
11:30 PM
Mon, Aug 31
63 °FPassing clouds.No wind88%29.92 "HgN/A
10:30 PM61 °FPassing clouds.No wind94%29.95 "HgN/A
9:30 PM63 °FClear.3 mph88%29.98 "HgN/A
8:30 PM66 °FPassing clouds.5 mph83%29.95 "HgN/A
7:30 PM66 °FClear.3 mph83%29.92 "HgN/A
6:30 PM68 °FClear.3 mph73%29.92 "HgN/A
5:30 PM66 °FBroken clouds.9 mph78%29.92 "HgN/A
4:30 PM72 °FCloudy.17 mph61%29.95 "HgN/A
3:30 PM82 °FPartly sunny.9 mph28%29.92 "HgN/A
2:30 PM82 °FPartly sunny.12 mph28%29.95 "HgN/A
1:30 PM79 °FPartly sunny.9 mph32%29.98 "HgN/A
12:30 PM77 °FPartly sunny.14 mph34%30.04 "HgN/A
11:30 AM75 °FBroken clouds.9 mph44%30.04 "HgN/A
10:30 AM70 °FPartly sunny.8 mph57%30.07 "HgN/A
9:30 AM66 °FScattered clouds.6 mph64%30.09 "HgN/A
8:30 AM61 °FScattered clouds.7 mph63%30.09 "HgN/A
6:30 AM57 °FCloudy.9 mph72%30.07 "HgN/A
5:30 AM59 °FMostly cloudy.5 mph72%30.07 "HgN/A
4:30 AM64 °FMostly cloudy.No wind40%30.07 "HgN/A
3:30 AM68 °FPassing clouds.10 mph28%30.04 "HgN/A
2:30 AM68 °FClear.10 mph33%30.04 "HgN/A
1:30 AM68 °FPassing clouds.14 mph40%30.07 "HgN/A
12:30 AM68 °FPassing clouds.12 mph40%30.09 "HgN/A
Weather by CustomWeather, © 2015

See weather overviewHow to use our weather pages